Location: L�Ave Maria
(50.7161°N, 1.5911°E)
Time: 23:26:31
(UTC+00:00)

Cosmos 2058 - Pass Details

Date: 10 July 2020
Orbit: 562 x 584 km, 82.5° (Epoch: 14 August)

Event Time Altitude Azimuth Distance (km) Brightness Sun altitude
Exits shadow 21:37:56 12° 177° (S) 1,774 4.9 -10.8°
Maximum altitude 21:41:46 64° 97° (E) 638 2.9 -11.2°
Drops below altitude 10° 21:45:52 10° 16° (NNE) 1,881 6.2 -11.5°
Sets 21:48:04 0° 13° (NNE) 2,780 7.2 -11.7°
